Regional Weather Roundup
Issued by NWS

Home | Current Version | Previous Version | Text Only | Print | Product List | Glossary Off
Versions: 1 2 3 4 5 6 7 8 9 10 11 12 13 14 15 16 17 18 19 20 21 22 23 24 25 26 27 28 29 30 31 32 33 34 35 36 37 38 39 40 41 42 43 44 45 46 47 48 49 50

000
ASUS45 KSLC 311910
RWRUT

UTAH REGIONAL WEATHER ROUNDUP
NATIONAL WEATHER SERVICE SALT LAKE CITY UT
100 PM MDT TUE MAR 31 2015

UTZ001>011-023>025-312000-

NORTHERN UTAH

CITY           SKY/WX    TMP DP  RH WIND       PRES   REMARKS
BRIGHAM CITY   PTSUNNY   70  27  20 SW12      29.91F
HILL AFB       MOSUNNY   73  24  16 S23G31    29.92F
LOGAN          SUNNY     66  32  28 VRB3      29.90F
OGDEN          PTSUNNY   72  24  16 SW20G28   29.91F
PROVO AIRPORT  PTSUNNY   72  30  21 SE3       29.97F
SALT LAKE CITY PTSUNNY   73  21  14 S21G31    29.91F
VERNAL         SUNNY     64  21  19 CALM      30.03F
WENDOVER       PTSUNNY   63  19  19 NE9       29.90F
WEST JORDAN    SUNNY     70  32  24 SE17G24   29.94F

$$

UTZ012>022-026-027-312000-

SOUTHERN/CENTRAL UTAH

CITY           SKY/WX    TMP DP  RH WIND       PRES   REMARKS
BLANDING       SUNNY     66  25  21 S10       30.19F
BRYCE CANYON   SUNNY     63  17  17 SW22      30.17F
CEDAR CITY     MOSUNNY   69  19  15 S21G29    30.05F
DELTA          CLOUDY    74  17  11 SW20G26   29.97F
HANKSVILLE     SUNNY     73  25  16 SE6       30.02F
MILFORD        MOSUNNY   72  18  13 SW22G33   30.01F
MOAB/CYNLANDS  SUNNY     73  21  14 VRB3      29.99F
PRICE          SUNNY     69  19  15 VRB7      30.05F
ST GEORGE      CLOUDY    73  30  20 NW5       29.98F
KANAB          SUNNY     73  23  15 S8        30.10F

$$

REGIONAL REPORTS     COLORADO/ARIZONA

CITY           SKY/WX    TMP DP  RH WIND       PRES   REMARKS
CRAIG, CO      SUNNY     69  22  16 NW7       30.06F
GRAND JUNCTION SUNNY     70  21  15 VRB5      30.03F
RIFLE          SUNNY     69  22  16 W9        30.05F
MONTROSE       SUNNY     73  17  12 CALM      30.08F
CORTEZ         SUNNY     74  21  13 S16       30.11F
PAGE, AZ       SUNNY     73  26  17 VRB5      30.03F
GRAND CANYON   MOSUNNY   70  23  17 W17G28    30.18F
KINGMAN        SUNNY     81  27  14 SW23G30   30.03S
FLAGSTAFF      SUNNY     65  23  20 W15G28    30.22F

$$

REGIONAL REPORTS    NEVADA/IDAHO/WYOMING

CITY           SKY/WX    TMP DP  RH WIND       PRES   REMARKS
LAS VEGAS, NV  PTSUNNY   87  20   8 S16G23    29.87F
ELY            MOSUNNY   65  12  12 S26G36    30.02F
ELKO           MOSUNNY   68  20  16 W20G28    29.94F
POCATELLO, ID  SUNNY     66  21  18 W24       29.87F
BURLEY         CLOUDY    66  29  24 W13G21    29.86F
EVANSTON, WY   MOSUNNY   67  17  14 S23G36    30.03F
ROCK SPRINGS   SUNNY     68  10  10 W20G30    30.01F
KEMMERER       MOSUNNY   63  12  14 SW31G39   30.02F

$$



USA.gov is the U.S. government's official web portal to all federal, state and local government web resources and services.